Location: Carrières
(48.9495°N, 2.0407°E)
Time: 06:27:51
(UTC+00:00)

Vanguard 1 Rocket - Pass Details

Date: 15 April 2024
Orbit: 650 x 4220 km, 34.3° (Epoch: 27 May)

Event Time Altitude Azimuth Distance (km) Brightness Sun altitude
Rises 22:25:51 0° 255° (WSW) 4,147 10.9 -27.9°
Reaches altitude 10° 22:28:24 10° 246° (WSW) 3,501 10.4 -28.1°
Enters shadow 22:34:56 35° 200° (SSW) 2,801 9.4 -28.5°
